[[{"header":{"parameterUnit":"m.s-1","parameterCategory":1,"la1":30.2991,"la2":30.254,"lo1":-89.0895,"lo2":-89.0444,"dy":0.0017,"dx":0.0017,"nx":28,"ny":28,"refTime":"2023-08-21T09:00:00:Z","depth":0,"parameterNumber":2,"parameterNumberName":"U-component_of_WINDS"},"data":[0,0,0,0,0,0,0,0,0,0,0,0,0,0,0,0,0,0,0,0,0,0,0,0,0,0,0,0,0,0,0,0,0,0,0,0,0,0,0,0,0,0,0,0,0,0,0,0,0,0,0,0,0,0,0,0,0,0,-6.8386,-6.8386,0,-6.8329,-6.8328,-6.8328,-6.8171,-6.8167,-6.8164,-6.8161,-6.8106,-6.8108,-6.8109,0,0,0,0,0,0,0,0,0,0,0,0,0,-6.8366,-6.8368,-6.8387,-6.8386,-6.8385,-6.8329,-6.8328,-6.8328,-6.8171,-6.8167,-6.8163,-6.8159,-6.8105,-6.8107,-6.8109,0,0,0,0,0,0,0,0,0,0,0,0,0,-6.8349,-6.8368,-6.8387,-6.83,-6.8292,-6.8329,-6.8328,-6.8327,-6.8172,-6.8167,-6.8162,-6.8157,-6.8105,-6.8107,-6.811,-6.8227,0,0,-6.8117,-6.8119,0,0,0,0,0,0,0,0,-6.835,-6.835,-6.8314,-6.8306,-6.8297,-6.8252,-6.8301,-6.8294,-6.8174,-6.8218,-6.8161,-6.8155,-6.8159,-6.8157,-6.8157,-6.8225,-6.8222,-6.8118,-6.8119,-6.812,-6.8121,0,0,0,0,0,0,0,-6.8352,-6.8352,-6.8364,-6.8314,-6.8303,-6.8266,-6.8258,-6.8299,-6.8218,-6.8214,-6.8202,-6.8197,-6.8153,-6.8155,-6.8155,-6.8221,-6.8118,-6.812,-6.8121,-6.8122,-6.8383,-6.8389,0,0,0,0,0,0,-6.8365,-6.8354,-6.8366,-6.8362,-6.8312,-6.8271,-6.8262,-6.8272,-6.8217,-6.8203,-6.8202,-6.819,-6.8153,-6.8152,-6.8152,-6.8285,-6.812,-6.8123,-6.8124,-6.8378,-6.8385,-6.839,0,0,0,0,0,0,-6.8365,-6.8367,-6.8368,-6.8355,-6.8352,-6.8276,-6.8289,-6.8273,-6.8274,-6.8208,-6.8193,-6.8218,-6.8149,-6.8149,-6.8209,-6.8281,-6.8124,-6.8126,-6.8372,-6.838,-6.8388,-6.8553,0,0,0,0,0,0,-6.8365,-6.8368,-6.841,-6.8357,-6.8353,-6.8425,-6.8293,-6.8276,-6.8279,-6.8263,-6.8219,-6.8207,-6.8145,-6.8207,-6.8212,-6.8282,-6.8128,-6.8365,-6.8375,-6.8385,-6.8541,-6.8566,-6.8587,0,0,0,0,0,-6.8365,-6.846,-6.8413,-6.8415,-6.8404,-6.8429,-6.8427,-6.8353,-6.8285,-6.8328,-6.8286,-6.8208,-6.8274,-6.8214,-6.8219,-6.8291,-6.836,-6.8372,-6.8384,-6.853,-6.8561,-6.8587,0,0,0,0,0,0,-6.8524,-6.8451,-6.8398,-6.8479,-6.8462,-6.8403,-6.8454,-6.8388,-6.839,-6.8376,-6.8285,-6.8277,-6.8351,-6.8327,-6.8262,-6.8402,-6.8304,-6.8318,-6.8414,-6.8442,-6.8465,-6.8468,-6.813,0,0,0,0,0,-6.8569,-6.8594,-6.8529,-6.8607,-6.8601,-6.853,-6.8538,-6.8483,-6.8461,-6.8453,-6.8415,-6.8399,-6.8415,-6.8428,-6.844,-6.8538,-6.8526,-6.859,-6.8614,-6.8633,-6.8645,-6.8696,-6.8723,-6.843,-6.843,-6.843,0,0,-6.8661,-6.8624,-6.8645,-6.8638,-6.8618,-6.8647,-6.8524,-6.856,-6.8581,-6.8459,-6.8513,-6.8486,-6.8462,-6.8542,-6.8576,-6.8525,-6.8724,-6.8649,-6.8665,-6.8666,-6.8711,-6.8739,-6.8763,-6.8439,-6.8437,-6.8436,0,0,-6.8842,-6.8818,-6.8879,-6.8862,-6.8833,-6.8786,-6.8802,-6.8753,-6.873,-6.8783,-6.8692,-6.8718,-6.8749,-6.8735,-6.8732,-6.8914,-6.8843,-6.8921,-6.9041,-6.9091,-6.9114,-6.9134,-6.9198,-6.9222,-6.8934,-6.8934,-6.8934,0,-6.896,-6.8999,-6.8919,-6.8961,-6.8961,-6.8853,-6.8915,-6.8903,-6.8881,-6.8884,-6.8827,-6.8864,-6.8841,-6.8916,-6.8961,-6.8963,-6.8978,-6.8923,-6.9117,-6.9136,-6.9154,-6.9213,-6.9238,-6.8944,-6.8943,-6.8942,-6.8941,0,-6.9145,-6.9174,-6.9228,-6.9207,-6.9214,-6.9267,-6.9196,-6.9213,-6.916,-6.9119,-6.9176,-6.9144,-6.9148,-6.9163,-6.911,-6.9232,-6.9201,-6.9133,-6.9032,-6.9193,-6.9247,-6.9269,-6.8957,-6.8954,-6.8951,-6.8949,0,0,-6.9421,-6.9359,-6.9379,-6.9369,-6.9332,-6.9353,-6.9403,-6.9405,-6.9421,-6.9411,-6.945,-6.948,-6.9417,-6.9414,-6.936,-6.9405,-6.955,-6.9331,-6.9329,-6.9371,-6.9682,-6.9731,-6.9759,-6.9505,-6.9509,-6.9512,-6.9683,0,-6.9591,-6.9668,-6.9599,-6.969,-6.9717,-6.9616,-6.9659,-6.9642,-6.9607,-6.9626,-6.9587,-6.9609,-6.9525,-6.9523,-6.9563,-6.9524,-6.9611,-6.9511,-6.954,-6.9542,-6.9545,-6.9787,-6.9839,-7.0001,-6.9704,-6.9708,-6.971,0,-6.9797,-6.9796,-6.989,-6.9847,-6.9856,-6.9895,-6.9893,-6.9912,-6.9892,-6.9863,-6.9862,-6.9797,-6.9844,-6.9749,-6.9812,-6.9746,-6.9755,-6.9738,-6.9743,-6.9739,-6.9633,-6.9789,-7.0051,-7.0075,-6.9743,-6.974,-6.9738,0,-6.9987,-7.0009,-7.0067,-7.0063,-7.0015,-7.0046,-7.0028,-7.0002,-7.0009,-7.0009,-7.0012,-7.0019,-7.0021,-7.0028,-6.9967,-6.9903,-7.0039,-6.9938,-7.0016,-7.0018,-7.0046,-7.0044,-7.0311,-7.0057,-7.0057,-7.0056,-7.0056,0,-7.0181,-7.0242,-7.0152,-7.0188,-7.0254,-7.0177,-7.0245,-7.0217,-7.0196,-7.0226,-7.0142,-7.0172,-7.0091,-7.0113,-7.0066,-7.0126,-7.0129,-7.0107,-7.0093,-7.0113,-7.0115,-7.0114,-7.0101,-7.0063,-7.0061,-7.006,-7.0059,0,-7.0402,-7.0344,-7.0401,-7.0353,-7.0342,-7.0393,-7.0352,-7.0384,-7.0345,-7.0385,-7.039,-7.0329,-7.0351,-7.0292,-7.0306,-7.0274,-7.036,-7.0329,-7.0366,-7.0355,-7.0436,-7.0428,-7.0709,-7.0742,-7.047,-7.0473,-7.0475,0,-7.0528,-7.0572,-7.0529,-7.0543,-7.0529,-7.0552,-7.0559,-7.0487,-7.0498,-7.048,-7.0515,-7.053,-7.0538,-7.0579,-7.0537,-7.0547,-7.0515,-7.0613,-7.0516,-7.0534,-7.0514,-7.0511,-7.0514,-7.0632,-7.0635,-7.0638,-7.064,0,-7.0757,-7.0727,-7.0739,-7.0743,-7.0753,-7.0752,-7.0746,-7.0762,-7.0686,-7.0703,-7.0724,-7.073,-7.0745,-7.0761,-7.0763,-7.0746,-7.0681,-7.0672,-7.069,-7.0708,-7.0727,-7.0716,-7.0417,-7.0664,-7.0662,-7.066,-7.0659,-7.0658,-7.0932,-7.0967,-7.0943,-7.096,-7.0948,-7.0945,-7.0972,-7.0938,-7.0954,-7.0959,-7.0917,-7.0948,-7.0929,-7.0924,-7.0915,-7.0939,-7.0894,-7.0921,-7.0927,-7.0934,-7.0947,-7.0726,-7.094,-7.0939,-7.0938,-7.0937,-7.0937,0,-7.1155,-7.1136,-7.1152,-7.1146,-7.116,-7.1099,-7.1089,-7.1105,-7.1133,-7.1121,-7.1131,-7.1157,-7.1174,-7.1134,-7.1145,-7.1172,-7.1143,-7.1177,-7.1173,-7.117,-7.0987,-7.0969,-7.1201,-7.1201,-7.1201,-7.1201,-7.1201,-7.1201,-7.1273,-7.1328,-7.1297,-7.1347,-7.1327,-7.1355,-7.1355,-7.1353,-7.1342,-7.1375,-7.1388,-7.1362,-7.134,-7.1349,-7.1362,-7.135,-7.1357,-7.1402,-7.138,-7.1209,-7.1183,-7.1158,-7.114,-7.1405,-7.1405,-7.156,-7.1561,-7.1562]},{"header":{"parameterUnit":"m.s-1","parameterCategory":1,"la1":30.2991,"la2":30.254,"lo1":-89.0895,"lo2":-89.0444,"dy":0.0017,"dx":0.0017,"nx":28,"ny":28,"refTime":"2023-08-21T09:00:00:Z","depth":0,"parameterNumber":3,"parameterNumberName":"V-component_of_WINDS"},"data":[0,0,0,0,0,0,0,0,0,0,0,0,0,0,0,0,0,0,0,0,0,0,0,0,0,0,0,0,0,0,0,0,0,0,0,0,0,0,0,0,0,0,0,0,0,0,0,0,0,0,0,0,0,0,0,0,0,0,2.6536,2.6537,0,2.6578,2.6579,2.6579,2.667,2.6672,2.6674,2.6676,2.671,2.6709,2.6709,0,0,0,0,0,0,0,0,0,0,0,0,0,2.6529,2.6528,2.6536,2.6537,2.6537,2.6578,2.6579,2.6579,2.667,2.6672,2.6674,2.6676,2.6711,2.671,2.6709,0,0,0,0,0,0,0,0,0,0,0,0,0,2.6547,2.6528,2.6536,2.6588,2.6593,2.6578,2.6579,2.658,2.6669,2.6672,2.6675,2.6678,2.6711,2.671,2.6708,2.6645,0,0,2.6705,2.6704,0,0,0,0,0,0,0,0,2.6546,2.6547,2.658,2.6584,2.659,2.6622,2.6589,2.6601,2.6669,2.664,2.6676,2.6679,2.6678,2.668,2.6681,2.6646,2.6648,2.6705,2.6704,2.6703,2.6703,0,0,0,0,0,0,0,2.6545,2.6546,2.6553,2.658,2.6586,2.6607,2.6612,2.6592,2.6642,2.6643,2.6649,2.6654,2.6681,2.6682,2.6683,2.6648,2.6705,2.6704,2.6703,2.6702,2.6564,2.6562,0,0,0,0,0,0,2.6537,2.6544,2.6551,2.6554,2.6575,2.6605,2.6611,2.6609,2.6643,2.6651,2.6651,2.6658,2.6683,2.6684,2.6684,2.6612,2.6703,2.6702,2.6701,2.6567,2.6564,2.6561,0,0,0,0,0,0,2.6536,2.6537,2.655,2.6551,2.6554,2.6602,2.6598,2.6608,2.6609,2.665,2.6658,2.6643,2.6685,2.6686,2.6655,2.6615,2.6702,2.67,2.6571,2.6566,2.6562,2.6467,0,0,0,0,0,0,2.6536,2.6536,2.6513,2.655,2.6554,2.6521,2.6596,2.6607,2.6608,2.6617,2.6644,2.6651,2.6687,2.6656,2.6653,2.6614,2.67,2.6574,2.6569,2.6564,2.6474,2.646,2.6448,0,0,0,0,0,2.6535,2.6483,2.6512,2.6512,2.6527,2.6518,2.652,2.6565,2.6604,2.6581,2.6607,2.665,2.662,2.6652,2.665,2.661,2.6577,2.657,2.6564,2.648,2.6463,2.6448,0,0,0,0,0,0,2.6436,2.6488,2.6521,2.648,2.6494,2.6534,2.6506,2.6546,2.6547,2.6555,2.6609,2.6614,2.6575,2.659,2.6625,2.6551,2.6606,2.6598,2.6542,2.6526,2.6514,2.651,2.6699,0,0,0,0,0,2.6411,2.6402,2.6447,2.6405,2.6412,2.6457,2.6455,2.6489,2.6505,2.6511,2.6535,2.6547,2.6541,2.6535,2.6531,2.6478,2.6484,2.6449,2.6436,2.6425,2.6417,2.639,2.6375,2.6539,2.6539,2.6539,0,0,2.6355,2.6383,2.6373,2.6386,2.6402,2.6389,2.6462,2.6445,2.6436,2.6508,2.648,2.6498,2.6515,2.6473,2.6456,2.6484,2.6374,2.6417,2.6408,2.6406,2.6382,2.6366,2.6352,2.6535,2.6535,2.6536,0,0,2.6249,2.6269,2.6238,2.6253,2.6277,2.6308,2.63,2.6335,2.635,2.6325,2.6379,2.6368,2.6355,2.6365,2.6369,2.6269,2.6308,2.6266,2.6197,2.617,2.6157,2.6146,2.6109,2.6095,2.6259,2.6258,2.6258,0,2.6176,2.6162,2.6215,2.6196,2.62,2.6269,2.6236,2.6247,2.6267,2.6267,2.63,2.6287,2.6303,2.6264,2.624,2.6241,2.6233,2.6262,2.6155,2.6144,2.6135,2.61,2.6086,2.6253,2.6254,2.6254,2.6255,0,2.6071,2.6061,2.6032,2.6053,2.6054,2.6028,2.6076,2.607,2.6105,2.6132,2.6105,2.6128,2.613,2.6124,2.6155,2.6089,2.6106,2.6146,2.6202,2.6113,2.6081,2.6069,2.6245,2.6247,2.6249,2.625,0,0,2.59,2.5954,2.5943,2.5954,2.5986,2.5978,2.5955,2.5961,2.5954,2.5966,2.5947,2.5936,2.5975,2.5978,2.6013,2.5989,2.5908,2.6032,2.6034,2.6007,2.5835,2.5804,2.5787,2.5936,2.5934,2.5932,2.5834,0,2.5799,2.5766,2.5814,2.5769,2.5759,2.5825,2.5806,2.5822,2.5848,2.5842,2.5869,2.5861,2.5912,2.5915,2.5896,2.5922,2.5874,2.593,2.5916,2.5915,2.5908,2.5771,2.5737,2.5643,2.5822,2.582,2.5818,0,2.5677,2.5687,2.564,2.5678,2.5676,2.5657,2.5666,2.5661,2.5681,2.5701,2.5707,2.575,2.5728,2.5785,2.5755,2.5792,2.579,2.5802,2.58,2.5798,2.5859,2.5764,2.5615,2.5599,2.5799,2.5801,2.5802,0,2.5555,2.5557,2.553,2.5537,2.558,2.5565,2.5582,2.5606,2.5607,2.5614,2.5615,2.5619,2.562,2.5622,2.5664,2.5701,2.5628,2.5688,2.5642,2.5641,2.5622,2.5622,2.5467,2.5623,2.5623,2.5624,2.5624,0,2.5436,2.5405,2.5476,2.5459,2.5426,2.5482,2.5447,2.5471,2.5492,2.5479,2.5537,2.5523,2.558,2.5572,2.5605,2.5575,2.5575,2.5589,2.5598,2.5583,2.5581,2.558,2.5587,2.562,2.5621,2.5622,2.5622,0,2.5294,2.534,2.5315,2.536,2.537,2.5343,2.538,2.5365,2.5397,2.538,2.5379,2.5426,2.542,2.5463,2.5464,2.5486,2.5439,2.546,2.5433,2.5439,2.539,2.5393,2.5228,2.5209,2.5378,2.5376,2.5375,0,2.5214,2.5192,2.5235,2.5233,2.5247,2.5242,2.5244,2.5299,2.5298,2.5321,2.5303,2.5303,2.5305,2.5292,2.5324,2.5326,2.5346,2.5288,2.5346,2.5332,2.5343,2.5343,2.5341,2.5274,2.5272,2.5271,2.5269,0,2.5067,2.5092,2.5094,2.5104,2.5106,2.5116,2.5129,2.5123,2.5182,2.5178,2.5175,2.5177,2.518,2.5178,2.5186,2.5202,2.5244,2.5252,2.5241,2.5224,2.5209,2.5215,2.5398,2.5254,2.5256,2.5257,2.5258,2.5258,2.4952,2.4936,2.4965,2.4965,2.4982,2.4994,2.4983,2.5014,2.5013,2.5021,2.5054,2.5044,2.5066,2.5082,2.5093,2.5085,2.5113,2.5097,2.5093,2.5088,2.5079,2.5212,2.5087,2.5088,2.5088,2.5088,2.5089,0,2.4807,2.483,2.483,2.4849,2.4849,2.4894,2.4912,2.4908,2.49,2.4918,2.492,2.4916,2.4915,2.4949,2.4952,2.4939,2.4959,2.4938,2.4938,2.4941,2.5054,2.5063,2.4922,2.4922,2.4922,2.4922,2.4922,2.4922,2.4732,2.4707,2.4735,2.472,2.4742,2.4735,2.4742,2.4752,2.4768,2.4761,2.4762,2.4786,2.481,2.4816,2.4816,2.4826,2.4824,2.4796,2.4812,2.4917,2.4933,2.4948,2.4956,2.4795,2.4795,2.4699,2.4698,2.4697]}]]